Hourly Weather Boltino

Today, 23 July, Friday

Time Temperature Precipitation Wind Pressure Humidity
00:00 +13°C° 0.1 mm 3 mps 739 mmHg 87%
01:00 +13°C° 0.1 mm 3 mps 739 mmHg 89%
02:00 +12°C° 0 mm 4 mps 738 mmHg 93%
03:00 +12°C° 0.3 mm 4 mps 738 mmHg 93%
04:00 +12°C° 0.3 mm 4 mps 738 mmHg 94%
05:00 +12°C° 0.3 mm 4 mps 737 mmHg 95%
06:00 +13°C° 0.3 mm 3 mps 737 mmHg 94%
07:00 +13°C° 0.3 mm 3 mps 737 mmHg 94%
08:00 +13°C° 0 mm 3 mps 737 mmHg 93%
09:00 +15°C° 0.2 mm 4 mps 737 mmHg 80%
10:00 +17°C° 0.2 mm 5 mps 737 mmHg 68%
11:00 +20°C° 0.2 mm 6 mps 737 mmHg 55%
12:00 +20°C° 0 mm 5 mps 737 mmHg 51%
13:00 +20°C° 0 mm 5 mps 737 mmHg 47%
14:00 +20°C° 0 mm 5 mps 737 mmHg 43%
15:00 +20°C° 0 mm 5 mps 737 mmHg 44%
16:00 +19°C° 0 mm 5 mps 738 mmHg 45%
17:00 +19°C° 0 mm 5 mps 738 mmHg 46%
18:00 +18°C° 0 mm 4 mps 738 mmHg 51%
19:00 +15°C° 0 mm 4 mps 739 mmHg 55%
20:00 +14°C° 0 mm 3 mps 739 mmHg 60%
21:00 +13°C° 0 mm 3 mps 739 mmHg 65%
22:00 +12°C° 0 mm 3 mps 740 mmHg 71%
23:00 +11°C° 0 mm 3 mps 740 mmHg 76%

Tomorrow, 24 July, Saturday

Time Temperature Precipitation Wind Pressure Humidity
00:00 +10°C° 0 mm 3 mps 740 mmHg 80%
01:00 +10°C° 0 mm 2 mps 741 mmHg 83%
02:00 +10°C° 0 mm 2 mps 741 mmHg 86%
03:00 +10°C° 0 mm 2 mps 742 mmHg 85%
04:00 +10°C° 0 mm 2 mps 742 mmHg 84%
05:00 +12°C° 0 mm 2 mps 743 mmHg 83%
06:00 +12°C° 0 mm 3 mps 743 mmHg 73%
07:00 +14°C° 0 mm 3 mps 743 mmHg 62%
08:00 +16°C° 0 mm 3 mps 744 mmHg 52%
09:00 +17°C° 0 mm 3 mps 744 mmHg 46%
10:00 +18°C° 0 mm 3 mps 744 mmHg 40%
11:00 +19°C° 0 mm 3 mps 745 mmHg 34%
12:00 +20°C° 0 mm 3 mps 745 mmHg 33%
13:00 +20°C° 0 mm 3 mps 745 mmHg 31%
14:00 +21°C° 0 mm 3 mps 745 mmHg 29%
15:00 +21°C° 0 mm 3 mps 745 mmHg 30%
16:00 +21°C° 0 mm 3 mps 745 mmHg 30%
17:00 +21°C° 0 mm 3 mps 745 mmHg 30%
18:00 +19°C° 0 mm 2 mps 746 mmHg 37%
19:00 +18°C° 0 mm 1 mps 746 mmHg 43%
20:00 +15°C° 0 mm 1 mps 746 mmHg 49%
21:00 +14°C° 0 mm 1 mps 746 mmHg 50%
22:00 +14°C° 0 mm 2 mps 747 mmHg 50%
23:00 +14°C° 0 mm 2 mps 747 mmHg 51%

Day after tomorrow, 25 July, Sunday

Time Temperature Precipitation Wind Pressure Humidity
00:00 +14°C° 0 mm 2 mps 747 mmHg 53%
01:00 +13°C° 0 mm 2 mps 747 mmHg 55%
02:00 +13°C° 0 mm 2 mps 747 mmHg 58%
03:00 +13°C° 0 mm 2 mps 748 mmHg 58%
04:00 +14°C° 0 mm 2 mps 748 mmHg 57%
05:00 +14°C° 0 mm 2 mps 748 mmHg 57%
06:00 +16°C° 0 mm 2 mps 748 mmHg 51%
07:00 +18°C° 0 mm 2 mps 749 mmHg 45%
08:00 +19°C° 0 mm 2 mps 749 mmHg 40%
09:00 +20°C° 0 mm 2 mps 749 mmHg 37%
10:00 +22°C° 0 mm 3 mps 749 mmHg 34%
11:00 +24°C° 0 mm 3 mps 749 mmHg 31%
12:00 +24°C° 0 mm 3 mps 749 mmHg 30%
13:00 +24°C° 0 mm 3 mps 749 mmHg 29%
14:00 +25°C° 0 mm 4 mps 749 mmHg 29%
15:00 +25°C° 0 mm 3 mps 749 mmHg 30%
16:00 +24°C° 0 mm 3 mps 749 mmHg 31%
17:00 +24°C° 0 mm 3 mps 750 mmHg 31%
18:00 +21°C° 0 mm 2 mps 750 mmHg 38%
19:00 +18°C° 0 mm 2 mps 750 mmHg 45%
20:00 +16°C° 0 mm 1 mps 750 mmHg 51%
21:00 +15°C° 0 mm 1 mps 750 mmHg 53%
22:00 +15°C° 0 mm 1 mps 750 mmHg 54%
23:00 +14°C° 0 mm 1 mps 751 mmHg 56%

26 July, Monday

Time Temperature Precipitation Wind Pressure Humidity
00:00 +14°C° 0 mm 1 mps 751 mmHg 55%
01:00 +14°C° 0 mm 1 mps 751 mmHg 53%
02:00 +15°C° 0 mm 2 mps 751 mmHg 52%
03:00 +15°C° 0 mm 2 mps 751 mmHg 52%
04:00 +16°C° 0 mm 2 mps 751 mmHg 52%
05:00 +17°C° 0 mm 2 mps 751 mmHg 52%
06:00 +18°C° 0 mm 2 mps 751 mmHg 50%
07:00 +20°C° 0 mm 2 mps 751 mmHg 48%
08:00 +21°C° 0 mm 3 mps 751 mmHg 46%
09:00 +22°C° 0 mm 3 mps 751 mmHg 46%
10:00 +22°C° 0 mm 3 mps 751 mmHg 46%
11:00 +24°C° 0 mm 3 mps 751 mmHg 46%
12:00 +24°C° 0 mm 3 mps 751 mmHg 46%
13:00 +25°C° 0 mm 3 mps 751 mmHg 47%
14:00 +25°C° 0 mm 3 mps 750 mmHg 47%
15:00 +25°C° 0 mm 3 mps 750 mmHg 46%
16:00 +26°C° 0 mm 2 mps 750 mmHg 45%
17:00 +26°C° 0 mm 2 mps 750 mmHg 44%
18:00 +24°C° 0 mm 2 mps 750 mmHg 50%
19:00 +22°C° 0 mm 1 mps 750 mmHg 55%
20:00 +20°C° 0 mm 1 mps 750 mmHg 60%
21:00 +20°C° 0 mm 1 mps 750 mmHg 60%
22:00 +19°C° 0 mm 1 mps 750 mmHg 61%
23:00 +18°C° 0 mm 1 mps 750 mmHg 62%

27 July, Tuesday

Time Temperature Precipitation Wind Pressure Humidity
00:00 +17°C° 0 mm 2 mps 751 mmHg 62%
01:00 +17°C° 0 mm 2 mps 751 mmHg 62%
02:00 +17°C° 0 mm 2 mps 751 mmHg 63%
03:00 +18°C° 0 mm 2 mps 751 mmHg 63%
04:00 +18°C° 0 mm 2 mps 751 mmHg 64%
05:00 +18°C° 0 mm 2 mps 751 mmHg 64%
06:00 +20°C° 0 mm 2 mps 751 mmHg 57%
07:00 +24°C° 0 mm 2 mps 751 mmHg 50%
08:00 +26°C° 0 mm 2 mps 751 mmHg 43%
09:00 +27°C° 0 mm 2 mps 751 mmHg 39%
10:00 +29°C° 0 mm 2 mps 751 mmHg 35%
11:00 +30°C° 0 mm 2 mps 750 mmHg 31%
12:00 +29°C° 0 mm 2 mps 750 mmHg 33%
13:00 +29°C° 0 mm 2 mps 750 mmHg 35%
14:00 +28°C° 0 mm 3 mps 750 mmHg 37%
15:00 +28°C° 0 mm 2 mps 750 mmHg 38%
16:00 +27°C° 0 mm 2 mps 749 mmHg 40%
17:00 +27°C° 0 mm 2 mps 749 mmHg 41%
18:00 +25°C° 0 mm 2 mps 749 mmHg 47%
19:00 +24°C° 0 mm 2 mps 749 mmHg 52%
20:00 +21°C° 0 mm 2 mps 749 mmHg 58%
21:00 +21°C° 0 mm 2 mps 749 mmHg 60%
22:00 +21°C° 0 mm 1 mps 749 mmHg 62%
23:00 +20°C° 0 mm 1 mps 749 mmHg 64%

28 July, Wednesday

Time Temperature Precipitation Wind Pressure Humidity
00:00 +19°C° 0 mm 1 mps 749 mmHg 65%
01:00 +18°C° 0 mm 2 mps 749 mmHg 67%
02:00 +17°C° 0 mm 2 mps 749 mmHg 68%
03:00 +17°C° 0 mm 2 mps 749 mmHg 67%
04:00 +18°C° 0 mm 2 mps 748 mmHg 66%
05:00 +18°C° 0 mm 2 mps 748 mmHg 65%
06:00 +21°C° 0 mm 2 mps 748 mmHg 57%
07:00 +24°C° 0 mm 2 mps 748 mmHg 50%
08:00 +26°C° 0 mm 3 mps 748 mmHg 42%
09:00 +28°C° 0 mm 4 mps 747 mmHg 38%
10:00 +29°C° 0 mm 4 mps 747 mmHg 33%
11:00 +30°C° 0 mm 5 mps 747 mmHg 29%
12:00 +30°C° 0 mm 5 mps 746 mmHg 30%
13:00 +30°C° 0 mm 5 mps 746 mmHg 32%
14:00 +30°C° 0 mm 5 mps 745 mmHg 33%
15:00 +29°C° 0 mm 5 mps 745 mmHg 37%
16:00 +28°C° 0 mm 5 mps 745 mmHg 41%
17:00 +28°C° 0 mm 4 mps 745 mmHg 45%
18:00 +25°C° 0 mm 4 mps 745 mmHg 55%
19:00 +22°C° 0 mm 3 mps 744 mmHg 64%
20:00 +20°C° 0 mm 3 mps 744 mmHg 73%
21:00 +19°C° 0 mm 2 mps 744 mmHg 74%
22:00 +19°C° 0 mm 2 mps 744 mmHg 75%
23:00 +18°C° 0 mm 2 mps 743 mmHg 75%
Show more

We Need Your Consent

Meteoprog and our Service Providers may store and access personal data such as cookies, device identifiers or other similar technologies on your device and process such data to personalise content and ads, as well as provide social media features and to analyse the traffic.

  • Store and/or access information on your device

    Cookies, device identifiers or other information can be stored or accessed on your device for the purposes indicated above.

  • Personalised ads and content, ad and content measurement, audience insights, and products development

    Ads and content can be personalised based on a profile. More data can be added to better personalise ads and content. Ad and content performance can be measured. Insights about the audience who saw the ads and content can be derived. Such data can be used to develop or improve user’s experience, systems and software.

By clicking ‘I Agree’ you will allow the use of indicated cookies, device identifiers, web beacons or other similar technologies. Your settings can be changed in the browser on your device.

For certain purposes, legitimate interests may be relied on, rather than consent. You can read more about this in our Privacy and Cookie Policy.